TimeMST,TemperatureF,Dew PointF,Humidity,Sea Level PressureIn,VisibilityMPH,Wind Direction,Wind SpeedMPH,Gust SpeedMPH,PrecipitationIn,Events,Conditions,WindDirDegrees,DateUTC
12:53 AM,34.0,23.0,64,30.02,10.0,Calm,Calm,-,N/A,,Clear,0,2011-11-16 07:53:00
1:53 AM,28.9,24.1,82,30.02,10.0,Calm,Calm,-,N/A,,Clear,0,2011-11-16 08:53:00
2:53 AM,25.0,21.0,85,30.03,10.0,Calm,Calm,-,N/A,,Clear,0,2011-11-16 09:53:00
3:53 AM,24.1,21.0,88,30.03,10.0,ENE,4.6,-,N/A,,Clear,60,2011-11-16 10:53:00
4:53 AM,24.1,21.9,91,30.06,10.0,NE,6.9,-,N/A,,Clear,40,2011-11-16 11:53:00
5:53 AM,23.0,21.0,92,30.08,10.0,Calm,Calm,-,N/A,,Clear,0,2011-11-16 12:53:00
6:53 AM,21.9,19.0,89,30.19,10.0,Calm,Calm,-,N/A,,Clear,0,2011-11-16 13:53:00
7:53 AM,26.1,21.9,84,30.20,10.0,Calm,Calm,-,N/A,,Clear,0,2011-11-16 14:53:00
9:53 AM,37.9,19.0,47,30.21,10.0,WSW,4.6,-,N/A,,Clear,240,2011-11-16 16:53:00
10:53 AM,43.0,10.9,27,30.19,10.0,SW,4.6,-,N/A,,Clear,230,2011-11-16 17:53:00
11:53 AM,46.0,5.0,19,30.18,10.0,SW,8.1,-,N/A,,Clear,230,2011-11-16 18:53:00
12:53 PM,48.0,8.1,20,30.14,10.0,WSW,8.1,-,N/A,,Clear,240,2011-11-16 19:53:00
2:53 PM,48.0,6.1,18,30.17,10.0,WSW,13.8,-,N/A,,Clear,240,2011-11-16 21:53:00
3:53 PM,46.0,8.1,21,30.22,10.0,WSW,13.8,-,N/A,,Clear,250,2011-11-16 22:53:00
4:53 PM,41.0,10.0,28,30.27,10.0,WSW,5.8,-,N/A,,Clear,240,2011-11-16 23:53:00
5:53 PM,37.0,10.0,33,30.31,10.0,SSW,4.6,-,N/A,,Clear,200,2011-11-17 00:53:00
6:53 PM,30.0,14.0,51,30.38,10.0,East,6.9,-,N/A,,Clear,80,2011-11-17 01:53:00
7:53 PM,30.0,14.0,51,30.40,10.0,Calm,Calm,-,N/A,,Clear,0,2011-11-17 02:53:00
8:53 PM,26.1,15.1,63,30.40,10.0,NNE,9.2,-,N/A,,Clear,30,2011-11-17 03:53:00
9:53 PM,24.1,14.0,65,30.39,10.0,Calm,Calm,-,N/A,,Clear,0,2011-11-17 04:53:00
10:53 PM,24.1,14.0,65,30.35,10.0,North,4.6,-,N/A,,Clear,10,2011-11-17 05:53:00
11:53 PM,21.9,12.9,68,30.35,10.0,North,4.6,-,N/A,,Clear,350,2011-11-17 06:53:00